Regional Weather Roundup
Issued by NWS

Home | Current Version | Previous Version | Text Only | Print | Product List | Glossary On
Versions: 1 2 3 4 5 6 7 8 9 10 11 12 13 14 15 16 17 18 19 20 21 22 23 24 25 26 27 28 29 30 31 32 33 34 35 36 37 38 39 40 41 42 43 44 45 46 47 48 49 50
000
ASUS43 KFSD 262110
RWRSD

WEATHER ROUNDUP FOR SOUTH DAKOTA
NATIONAL WEATHER SERVICE SIOUX FALLS SD
300 PM CST SUN FEB 26 2017

NOTE: "FAIR" INDICATES FEW OR NO CLOUDS BELOW 12,000 FEET WITH NO
SIGNIFICANT WEATHER AND/OR OBSTRUCTIONS TO VISIBILITY.


SDZ001>005-009-010-012>017-262200-
NORTHWEST AND NORTH CENTRAL SOUTH DAKOTA

CITY           SKY/WX    TMP DP  RH WIND       PRES   REMARKS
BUFFALO          N/A     36  18  48 NW22      29.64S
FAITH            N/A     37  17  44 W20       29.72F
MOBRIDGE       CLOUDY    39  21  48 N6        29.72F
$$

SDZ012>016-024>037-041>051-057-063-072>074-262200-
SOUTHWEST AND SOUTH CENTRAL SOUTH DAKOTA

CITY           SKY/WX    TMP DP  RH WIND       PRES   REMARKS
RAPID CTY ARPT MOSUNNY   37  14  38 N6        29.75S
PIERRE         PTSUNNY   42  11  28 W14       29.76F
CUSTER         CLOUDY    25   5  42 W9        29.69S WCI  15
ELLSWORTH AFB  MOSUNNY   37  13  37 N7        29.74F
PHILIP         MOSUNNY   44  10  25 W18G29    29.77S
PINE RIDGE     SUNNY     29  13  51 W14       29.82F WCI  18
SPEARFISH      FAIR      34  10  37 W15       29.72F WCI  24
WINNER         FAIR      38  22  52 SW15      29.82F
$$

SDZ004>011-016>023-039-040-262200-
NORTHEAST SOUTH DAKOTA

CITY           SKY/WX    TMP DP  RH WIND       PRES   REMARKS
ABERDEEN       CLOUDY    29  18  63 SE5       29.83F WCI  24
WATERTOWN      SUNNY     34  18  52 W9        29.80F WCI  27
SISSETON         N/A     25  17  72 NE5       29.85F WCI  19
$$

SDZ017-020-022-023-036>040-048>070-262200-
SOUTHEAST SOUTH DAKOTA

CITY           SKY/WX    TMP DP  RH WIND       PRES   REMARKS
SIOUX FALLS    MOSUNNY   36  25  64 W8        29.86F
HURON          SUNNY     43  21  41 W10       29.80F
CHAMBERLAIN    PTSUNNY   44  20  37 SW7       29.79F
MITCHELL       SUNNY     41  24  51 S14G21    29.84F
YANKTON        SUNNY     36  21  55 S9        29.89S
$$

ABBREVIATIONS USED IN REMARKS
   TC - TEMPERATURE IN CELSIUS
  WCI - WIND CHILL INDEX
   HX - HEAT INDEX
  VSB - VISIBILITY





USA.gov is the U.S. government's official web portal to all federal, state and local government web resources and services.